LAN111 SCSE-SCEL

Flight info

Callsign LAN111
Flight time 0h 38m
Altitude 27000
Route EDRON5 EDRON UL302 SIMOK SIMOK7B
Aircraft A320/M-SDE3FGHIRWY/LB1

Departure

Time 2026-04-20 16:26
Airport La Florida Airport (SCSE)

Arrival

Time 2026-04-20 17:04
Airport Comodoro Arturo Merino Benítez International Airport (SCEL)
Time Latitude Longitude Altitude Speed Heading
2026-04-20 15:27 -29.91618 -71.20442 481 ft 0 kts 208°
2026-04-20 16:14 -29.91609 -71.20437 472 ft 3 kts 208°
2026-04-20 16:14 -29.91594 -71.20427 478 ft 3 kts 208°
2026-04-20 16:14 -29.91584 -71.20421 475 ft 3 kts 208°
2026-04-20 16:15 -29.91574 -71.20415 478 ft 0 kts 208°
2026-04-20 16:18 -29.91578 -71.20415 477 ft 1 kts 187°
2026-04-20 16:18 -29.91585 -71.20408 473 ft 1 kts 130°
2026-04-20 16:19 -29.91589 -71.20390 477 ft 3 kts 103°
2026-04-20 16:19 -29.91594 -71.20367 480 ft 4 kts 107°
2026-04-20 16:19 -29.91610 -71.20329 478 ft 6 kts 117°
2026-04-20 16:19 -29.91635 -71.20276 475 ft 9 kts 117°
2026-04-20 16:20 -29.91659 -71.20216 478 ft 5 kts 116°
2026-04-20 16:20 -29.91675 -71.20169 476 ft 7 kts 91°
2026-04-20 16:20 -29.91633 -71.20135 476 ft 9 kts 26°
2026-04-20 16:20 -29.91587 -71.20090 475 ft 9 kts 88°
2026-04-20 16:21 -29.91615 -71.20017 474 ft 11 kts 117°
2026-04-20 16:21 -29.91656 -71.19925 478 ft 13 kts 117°
2026-04-20 16:21 -29.91701 -71.19819 474 ft 16 kts 115°
2026-04-20 16:21 -29.91752 -71.19697 473 ft 18 kts 117°
2026-04-20 16:22 -29.91808 -71.19568 475 ft 19 kts 116°
2026-04-20 16:22 -29.91868 -71.19427 476 ft 21 kts 116°
2026-04-20 16:22 -29.91935 -71.19274 478 ft 22 kts 116°
2026-04-20 16:22 -29.91990 -71.19147 472 ft 14 kts 125°
2026-04-20 16:23 -29.92049 -71.19085 477 ft 8 kts 124°
2026-04-20 16:23 -29.92021 -71.19065 473 ft 8 kts 312°
2026-04-20 16:23 -29.92013 -71.19086 475 ft 0 kts 294°
2026-04-20 16:25 -29.91951 -71.19239 479 ft 59 kts 296°
2026-04-20 16:25 -29.91651 -71.19936 474 ft 131 kts 296°
2026-04-20 16:25 -29.91211 -71.20967 974 ft 142 kts 295°
2026-04-20 16:26 -29.90762 -71.22052 1296 ft 162 kts 295°
2026-04-20 16:26 -29.90229 -71.23359 1447 ft 192 kts 294°
2026-04-20 16:26 -29.89634 -71.24834 1770 ft 216 kts 294°
2026-04-20 16:26 -29.88943 -71.26506 2187 ft 241 kts 294°
2026-04-20 16:27 -29.88222 -71.28317 2758 ft 258 kts 287°
2026-04-20 16:27 -29.88051 -71.30398 3596 ft 262 kts 259°
2026-04-20 16:27 -29.88722 -71.32348 4472 ft 266 kts 234°
2026-04-20 16:27 -29.90109 -71.33761 5308 ft 273 kts 207°
2026-04-20 16:28 -29.91967 -71.34294 6109 ft 281 kts 179°
2026-04-20 16:28 -29.93899 -71.33855 6896 ft 288 kts 163°
2026-04-20 16:28 -29.95839 -71.33178 7668 ft 294 kts 162°
2026-04-20 16:28 -29.97846 -71.32464 8421 ft 301 kts 162°
2026-04-20 16:29 -29.99872 -71.31742 9161 ft 308 kts 162°
2026-04-20 16:29 -30.01945 -71.31006 9909 ft 316 kts 162°
2026-04-20 16:29 -30.04088 -71.30249 10375 ft 332 kts 162°
2026-04-20 16:29 -30.06379 -71.29441 10626 ft 354 kts 163°
2026-04-20 16:30 -30.08820 -71.28794 11173 ft 363 kts 174°
2026-04-20 16:30 -30.11354 -71.28691 11835 ft 366 kts 184°
2026-04-20 16:30 -30.13946 -71.28784 12572 ft 369 kts 183°
2026-04-20 16:30 -30.16524 -71.28868 13282 ft 373 kts 184°
2026-04-20 16:31 -30.19128 -71.28950 14006 ft 376 kts 184°
2026-04-20 16:31 -30.21747 -71.29030 14637 ft 378 kts 184°
2026-04-20 16:31 -30.24388 -71.29109 15266 ft 381 kts 184°
2026-04-20 16:31 -30.27047 -71.29189 15903 ft 384 kts 185°
2026-04-20 16:32 -30.29778 -71.29273 16547 ft 387 kts 185°
2026-04-20 16:32 -30.32471 -71.29025 17165 ft 396 kts 169°
2026-04-20 16:32 -30.35125 -71.27924 17798 ft 403 kts 160°
2026-04-20 16:32 -30.37727 -71.26656 18447 ft 406 kts 160°
2026-04-20 16:33 -30.40333 -71.25362 18970 ft 410 kts 160°
2026-04-20 16:33 -30.42967 -71.24044 19497 ft 414 kts 160°
2026-04-20 16:33 -30.45623 -71.22717 20025 ft 418 kts 160°
2026-04-20 16:33 -30.48303 -71.21383 20578 ft 422 kts 161°
2026-04-20 16:34 -30.51014 -71.20036 21106 ft 425 kts 161°
2026-04-20 16:34 -30.53754 -71.18689 21630 ft 429 kts 162°
2026-04-20 16:34 -30.56523 -71.17373 22145 ft 432 kts 163°
2026-04-20 16:34 -30.59329 -71.16072 22657 ft 435 kts 163°
2026-04-20 16:35 -30.62156 -71.14774 23167 ft 439 kts 163°
2026-04-20 16:35 -30.65048 -71.13445 23671 ft 443 kts 164°
2026-04-20 16:35 -30.67922 -71.12117 24090 ft 446 kts 164°
2026-04-20 16:35 -30.70812 -71.10770 24516 ft 449 kts 164°
2026-04-20 16:36 -30.73720 -71.09406 24913 ft 453 kts 164°
2026-04-20 16:36 -30.76654 -71.08022 25316 ft 456 kts 164°
2026-04-20 16:36 -30.79601 -71.06633 25703 ft 459 kts 164°
2026-04-20 16:36 -30.82575 -71.05235 26103 ft 462 kts 164°
2026-04-20 16:37 -30.85564 -71.03835 26489 ft 465 kts 165°
2026-04-20 16:37 -30.88581 -71.02423 26846 ft 468 kts 165°
2026-04-20 16:37 -30.91615 -71.01002 27087 ft 470 kts 165°
2026-04-20 16:37 -30.94619 -70.99585 27146 ft 459 kts 165°
2026-04-20 16:38 -30.96646 -70.98622 27150 ft 453 kts 165°
2026-04-20 16:38 -30.99549 -70.97246 27154 ft 449 kts 165°
2026-04-20 16:38 -31.02461 -70.95875 27154 ft 448 kts 165°
2026-04-20 16:38 -31.05368 -70.94513 27158 ft 448 kts 165°
2026-04-20 16:39 -31.08265 -70.93155 27163 ft 448 kts 165°
2026-04-20 16:39 -31.11184 -70.92042 27163 ft 437 kts 178°
2026-04-20 16:39 -31.14219 -70.91646 27170 ft 429 kts 184°
2026-04-20 16:39 -31.17200 -70.91367 27167 ft 430 kts 184°
2026-04-20 16:40 -31.20180 -70.91097 27177 ft 430 kts 184°
2026-04-20 16:40 -31.23065 -70.90845 27181 ft 430 kts 185°
2026-04-20 16:40 -31.26141 -70.90580 27175 ft 429 kts 185°
2026-04-20 16:40 -31.29088 -70.90322 27182 ft 430 kts 185°
2026-04-20 16:41 -31.32119 -70.90054 27184 ft 430 kts 184°
2026-04-20 16:41 -31.35074 -70.89787 27192 ft 431 kts 184°
2026-04-20 16:41 -31.38103 -70.89478 27193 ft 432 kts 183°
2026-04-20 16:41 -31.41097 -70.89142 27194 ft 432 kts 183°
2026-04-20 16:42 -31.44077 -70.88792 27195 ft 431 kts 183°
2026-04-20 16:42 -31.47069 -70.88441 27195 ft 432 kts 183°
2026-04-20 16:42 -31.50062 -70.88095 27192 ft 431 kts 183°
2026-04-20 16:42 -31.53046 -70.87758 27190 ft 431 kts 184°
2026-04-20 16:43 -31.56146 -70.87413 27195 ft 430 kts 184°
2026-04-20 16:43 -31.59132 -70.87088 27193 ft 430 kts 184°
2026-04-20 16:43 -31.62118 -70.86761 27195 ft 431 kts 183°
2026-04-20 16:43 -31.65193 -70.86422 27179 ft 431 kts 184°
2026-04-20 16:44 -31.68169 -70.86092 27185 ft 429 kts 184°
2026-04-20 16:44 -31.71123 -70.85763 27181 ft 430 kts 184°
2026-04-20 16:44 -31.74127 -70.85428 27176 ft 430 kts 184°
2026-04-20 16:44 -31.77108 -70.85143 27187 ft 429 kts 185°
2026-04-20 16:45 -31.80122 -70.84974 27192 ft 426 kts 187°
2026-04-20 16:45 -31.83209 -70.84887 27178 ft 424 kts 188°
2026-04-20 16:45 -31.86149 -70.84832 26924 ft 418 kts 188°
2026-04-20 16:45 -31.88131 -70.84782 26758 ft 414 kts 188°
2026-04-20 16:46 -31.91399 -70.84697 26460 ft 408 kts 188°
2026-04-20 16:46 -31.93395 -70.84641 26177 ft 407 kts 187°
2026-04-20 16:46 -31.96244 -70.84557 25740 ft 408 kts 187°
2026-04-20 16:46 -31.99037 -70.84467 25294 ft 409 kts 187°
2026-04-20 16:47 -32.01869 -70.84370 24837 ft 402 kts 186°
2026-04-20 16:47 -32.04737 -70.84260 24379 ft 396 kts 186°
2026-04-20 16:47 -32.07492 -70.84160 23924 ft 395 kts 186°
2026-04-20 16:47 -32.10343 -70.84059 23393 ft 395 kts 186°
2026-04-20 16:48 -32.13102 -70.83962 22930 ft 393 kts 185°
2026-04-20 16:48 -32.15851 -70.83862 22460 ft 390 kts 185°
2026-04-20 16:48 -32.18636 -70.83758 22198 ft 383 kts 185°
2026-04-20 16:48 -32.21237 -70.83664 21779 ft 384 kts 185°
2026-04-20 16:49 -32.23949 -70.83570 21314 ft 383 kts 185°
2026-04-20 16:49 -32.26653 -70.83474 20864 ft 383 kts 184°
2026-04-20 16:49 -32.29312 -70.83378 20427 ft 381 kts 184°
2026-04-20 16:49 -32.31961 -70.83282 19964 ft 379 kts 184°
2026-04-20 16:50 -32.34573 -70.83188 19499 ft 380 kts 184°
2026-04-20 16:50 -32.37224 -70.83092 19032 ft 380 kts 183°
2026-04-20 16:50 -32.39886 -70.82997 18548 ft 381 kts 183°
2026-04-20 16:50 -32.42625 -70.82900 17973 ft 383 kts 182°
2026-04-20 16:51 -32.45307 -70.82806 17477 ft 382 kts 182°
2026-04-20 16:51 -32.47964 -70.82713 16964 ft 382 kts 182°
2026-04-20 16:51 -32.50615 -70.82615 16455 ft 381 kts 182°
2026-04-20 16:51 -32.53265 -70.82519 15944 ft 379 kts 181°
2026-04-20 16:52 -32.55932 -70.82420 15428 ft 380 kts 181°
2026-04-20 16:52 -32.58581 -70.82321 14909 ft 381 kts 181°
2026-04-20 16:52 -32.61204 -70.82223 14397 ft 382 kts 181°
2026-04-20 16:52 -32.63848 -70.82128 14125 ft 375 kts 181°
2026-04-20 16:53 -32.66478 -70.82032 14001 ft 362 kts 181°
2026-04-20 16:53 -32.68310 -70.81964 13909 ft 354 kts 181°
2026-04-20 16:53 -32.70748 -70.81874 13771 ft 344 kts 181°
2026-04-20 16:53 -32.73184 -70.81786 13638 ft 334 kts 181°
2026-04-20 16:54 -32.75473 -70.81704 13507 ft 325 kts 181°
2026-04-20 16:54 -32.77882 -70.81619 13279 ft 318 kts 181°
2026-04-20 16:54 -32.80041 -70.81542 12739 ft 316 kts 181°
2026-04-20 16:54 -32.81958 -70.81473 12302 ft 313 kts 181°
2026-04-20 16:55 -32.84531 -70.81378 11713 ft 309 kts 181°
2026-04-20 16:55 -32.86659 -70.81300 11196 ft 306 kts 181°
2026-04-20 16:55 -32.88755 -70.81226 10676 ft 303 kts 180°
2026-04-20 16:55 -32.91004 -70.81148 10187 ft 299 kts 180°
2026-04-20 16:56 -32.92915 -70.81262 9687 ft 294 kts 190°
2026-04-20 16:56 -32.94921 -70.81573 9193 ft 290 kts 189°
2026-04-20 16:56 -32.96616 -70.81831 8780 ft 287 kts 189°
2026-04-20 16:56 -32.98657 -70.82136 8155 ft 287 kts 188°
2026-04-20 16:57 -33.00719 -70.82363 7698 ft 281 kts 181°
2026-04-20 16:57 -33.02639 -70.82277 7305 ft 273 kts 178°
2026-04-20 16:57 -33.04846 -70.82152 6843 ft 265 kts 178°
2026-04-20 16:57 -33.06417 -70.82052 6529 ft 259 kts 176°
2026-04-20 16:58 -33.08186 -70.81925 6144 ft 253 kts 177°
2026-04-20 16:58 -33.09998 -70.81823 5810 ft 243 kts 178°
2026-04-20 16:58 -33.11677 -70.81734 5691 ft 226 kts 178°
2026-04-20 16:58 -33.12397 -70.81694 5625 ft 219 kts 178°
2026-04-20 16:59 -33.13922 -70.81613 5408 ft 214 kts 178°
2026-04-20 16:59 -33.15238 -70.81545 5199 ft 211 kts 178°
2026-04-20 16:59 -33.16654 -70.81470 5076 ft 205 kts 179°
2026-04-20 16:59 -33.17923 -70.81402 5002 ft 194 kts 178°
2026-04-20 17:00 -33.20573 -70.81261 4894 ft 179 kts 179°
2026-04-20 17:00 -33.21431 -70.81215 4775 ft 179 kts 179°
2026-04-20 17:00 -33.23061 -70.81127 4482 ft 180 kts 179°
2026-04-20 17:01 -33.24327 -70.81060 4246 ft 181 kts 179°
2026-04-20 17:01 -33.25661 -70.80990 3994 ft 179 kts 179°
2026-04-20 17:01 -33.26554 -70.80942 3821 ft 177 kts 178°
2026-04-20 17:01 -33.28029 -70.80862 3555 ft 172 kts 178°
2026-04-20 17:02 -33.29296 -70.80795 3274 ft 160 kts 178°
2026-04-20 17:02 -33.30377 -70.80737 3030 ft 150 kts 177°
2026-04-20 17:02 -33.31416 -70.80681 2812 ft 146 kts 176°
2026-04-20 17:02 -33.32238 -70.80637 2615 ft 145 kts 176°
2026-04-20 17:03 -33.33349 -70.80578 2362 ft 144 kts 175°
2026-04-20 17:03 -33.34195 -70.80533 2191 ft 142 kts 175°
2026-04-20 17:03 -33.35169 -70.80481 2004 ft 140 kts 176°
2026-04-20 17:03 -33.36169 -70.80427 1807 ft 138 kts 176°
2026-04-20 17:04 -33.37133 -70.80379 1610 ft 137 kts 175°
2026-04-20 17:04 -33.37794 -70.80340 1573 ft 115 kts 177°
2026-04-20 17:04 -33.38562 -70.80301 1573 ft 57 kts 177°
2026-04-20 17:04 -33.38879 -70.80284 1574 ft 43 kts 176°
2026-04-20 17:05 -33.39139 -70.80266 1573 ft 33 kts 175°
2026-04-20 17:05 -33.39315 -70.80210 1572 ft 33 kts 160°
2026-04-20 17:05 -33.39439 -70.80117 1568 ft 17 kts 144°
2026-04-20 17:05 -33.39524 -70.80024 1566 ft 13 kts 110°
2026-04-20 17:06 -33.39530 -70.79965 1565 ft 13 kts 90°
2026-04-20 17:06 -33.39529 -70.79830 1565 ft 16 kts 89°
2026-04-20 17:06 -33.39522 -70.79678 1564 ft 19 kts 87°
2026-04-20 17:06 -33.39516 -70.79510 1564 ft 21 kts 88°
2026-04-20 17:07 -33.39525 -70.79457 1564 ft 5 kts 141°
2026-04-20 17:07 -33.39549 -70.79450 1564 ft 6 kts 179°
2026-04-20 17:07 -33.39594 -70.79453 1564 ft 0 kts 178°